This demonstration page uses our WeatherBlox Daily Observations layout. Learn more.

Left ArrowRight Arrow

40.97296, -117.73568

Hourly Observations for August 30, 2016

Temp ( °F °C ) Dew Point ( °F °C ) Humidity (%) Winds ( mph kmh ) Pressure ( in mb ) Visibility ( mi km ) Precip ( " mm )
12:56 am 00:56 Clear 61 16.1 20 -6.7 20 20 ESE 8 13 29.95 1014 10 16 0.00 0.00
1:56 am 01:56 Clear 55 12.8 20 -6.7 25 25 SSE 5 7 29.95 1014 10 16 0.00 0.00
2:56 am 02:56 Clear 51 10.6 21 -6.1 31 31 Calm 29.96 1015 10 16 0.00 0.00
3:56 am 03:56 Clear 50 10 21 -6.1 32 32 ESE 3 6 29.95 1014 10 16 0.00 0.00
4:56 am 04:56 Clear 45 7.2 22 -5.6 40 40 SSE 6 9 29.95 1014 10 16 0.00 0.00
5:56 am 05:56 Clear 46 7.8 24 -4.4 42 42 SE 6 9 29.96 1015 10 16 0.00 0.00
6:56 am 06:56 Sunny 50 10 23 -5 35 35 ESE 6 9 29.98 1015 10 16 0.00 0.00
7:56 am 07:56 Sunny 60 15.6 22 -5.6 23 23 SE 3 6 29.98 1015 10 16 0.00 0.00
8:56 am 08:56 Sunny 71 21.7 23 -5 16 16 SSE 5 7 29.96 1014 10 16 0.00 0.00
9:56 am 09:56 Sunny 75 23.9 21 -6.1 13 13 W 6 9 29.96 1014 10 16 0.00 0.00
10:56 am 10:56 Sunny 79 26.1 23 -5 12 12 Calm 29.95 1014 10 16 0.00 0.00
11:56 am 11:56 Sunny 84 28.9 21 -6.1 10 10 W 6 9 29.93 1014 10 16 0.00 0.00
12:56 pm 12:56 Sunny 88 31.1 21 -6.1 8 8 ENE 6 9 29.90 1013 10 16 0.00 0.00
1:56 pm 13:56 Sunny 91 32.8 21 -6.1 8 8 VRB 5 7 29.88 1012 10 16 0.00 0.00
2:56 pm 14:56 Sunny 94 34.4 24 -4.4 8 8 SW 9 15 29.85 1011 10 16 0.00 0.00
3:56 pm 15:56 Sunny 95 35 24 -4.4 8 8 WSW 20 31 29.83 1010 10 16 0.00 0.00
4:56 pm 16:56 Sunny 94 34.4 20 -6.7 7 7 WSW 23 37 29.83 1010 10 16 0.00 0.00
5:56 pm 17:56 Sunny 92 33.3 21 -6.1 7 7 WSW 6 9 29.83 1010 10 16 0.00 0.00
6:56 pm 18:56 Sunny 86 30 22 -5.6 9 9 NW 9 15 29.83 1010 10 16 0.00 0.00
7:56 pm 19:56 Clear 76 24.4 22 -5.6 13 13 NNW 6 9 29.85 1011 10 16 0.00 0.00
8:56 pm 20:56 Clear 69 20.6 20 -6.7 15 15 Calm 29.86 1011 10 16 0.00 0.00
9:56 pm 21:56 Clear 71 21.7 23 -5 16 16 W 6 9 29.85 1011 10 16 0.00 0.00
10:56 pm 22:56 Clear 69 20.6 24 -4.4 18 18 VRB 3 6 29.86 1011 10 16 0.00 0.00
11:56 pm 23:56 Clear 68 20 28 -2.2 22 22 VRB 3 6 29.86 1011 10 16 0.00 0.00

Powered by AerisWeather